This demonstration page uses our WeatherBlox Daily Observations layout. Learn more.

Hourly Observations for May 1, 2015

Temp ( °F °C ) Dew Point ( °F °C ) Humidity (%) Winds ( mph kmh ) Pressure ( in mb ) Visibility ( mi km ) Precip ( " mm )
12:15 am 00:15 Clear 57 14 41 5 55 55 SE 10 17 29.97 1015 10 16.09344 0 0
12:35 am 00:35 Clear 57 14 43 6 59 59 SE 9 15 29.97 1015 10 16.09344 0 0
12:55 am 00:55 Clear 57 14 41 5 55 55 SE 10 17 29.97 1015 10 16.09344 0 0
1:15 am 01:15 Clear 57 14 41 5 55 55 SSE 7 11 30 1016 10 16.09344 0 0
1:35 am 01:35 Clear 57 14 41 5 55 55 S 8 13 30 1016 10 16.09344 0 0
1:55 am 01:55 Clear 57 14 41 5 55 55 S 8 13 30 1016 10 16.09344 0 0
2:15 am 02:15 Clear 57 14 41 5 55 55 S 9 15 30 1016 10 16.09344 0 0
2:35 am 02:35 Clear 57 14 41 5 55 55 S 6 9 30 1016 10 16.09344 0 0
2:55 am 02:55 Clear 55 13 43 6 63 63 Calm 30 1016 10 16.09344 0 0
3:15 am 03:15 Clear 55 13 43 6 63 63 SE 8 13 30 1016 10 16.09344 0 0
3:35 am 03:35 Clear 57 14 43 6 59 59 SSE 8 13 29.97 1015 10 16.09344 0 0
3:55 am 03:55 Clear 55 13 43 6 63 63 S 7 11 29.97 1015 10 16.09344 0 0
4:15 am 04:15 Clear 57 14 43 6 59 59 S 10 17 30 1016 10 16.09344 0 0
4:35 am 04:35 Partly Cloudy 57 14 41 5 55 55 S 14 22 30 1016 10 16.09344 0 0
4:55 am 04:55 Mostly Cloudy 57 14 43 6 59 59 S 9 15 30 1016 10 16.09344 0 0
5:15 am 05:15 Mostly Cloudy 57 14 43 6 59 59 SSE 7 11 30 1016 10 16.09344 0 0
5:35 am 05:35 Mostly Cloudy 55 13 43 6 63 63 SE 9 15 30 1016 10 16.09344 0 0
5:55 am 05:55 Partly Cloudy 55 13 43 6 63 63 SE 5 7 30 1016 10 16.09344 0 0
6:15 am 06:15 Partly Cloudy 54 12 43 6 67 67 ESE 7 11 30.03 1017 10 16.09344 0 0
6:35 am 06:35 Clear 55 13 43 6 63 63 SSE 7 11 29.97 1015 10 16.09344 0 0
6:55 am 06:55 Sunny 54 12 43 6 67 67 SSE 5 7 30.03 1017 10 16.09344 0 0
7:15 am 07:15 Sunny 54 12 45 7 72 72 SSE 6 9 30.03 1017 10 16.09344 0 0
7:35 am 07:35 Mostly Cloudy 54 12 45 7 72 72 S 8 13 30.03 1017 10 16.09344 0 0
7:55 am 07:55 Mostly Cloudy 55 13 46 8 72 72 S 9 15 30 1016 10 16.09344 0 0
8:15 am 08:15 Partly Cloudy 55 13 46 8 72 72 S 12 19 30 1016 10 16.09344 0 0
8:35 am 08:35 Partly Cloudy 57 14 48 9 72 72 S 9 15 30 1016 10 16.09344 0 0
8:55 am 08:55 Partly Cloudy 59 15 48 9 68 68 SSW 9 15 30 1016 10 16.09344 0 0
9:15 am 09:15 Partly Cloudy 59 15 48 9 68 68 W 10 17 30 1016 10 16.09344 0 0
9:35 am 09:35 Sunny 59 15 48 9 68 68 NW 13 20 30.03 1017 10 16.09344 0 0
9:55 am 09:55 Sunny 59 15 46 8 63 63 NW 9 15 30.03 1017 10 16.09344 0 0
10:15 am 10:15 Sunny 61 16 48 9 63 63 NW 8 13 30.03 1017 10 16.09344 0 0
10:35 am 10:35 Sunny 63 17 48 9 59 59 NW 9 15 30 1016 10 16.09344 0 0
10:55 am 10:55 Sunny 64 18 46 8 52 52 NNW 10 17 30 1016 10 16.09344 0 0
11:15 am 11:15 Sunny 66 19 46 8 49 49 NNW 9 15 30 1016 10 16.09344 0 0
11:35 am 11:35 Sunny 66 19 48 9 52 52 NW 12 19 30 1016 10 16.09344 0 0
11:55 am 11:55 Sunny 68 20 48 9 49 49 NNW 10 17 30 1016 10 16.09344 0 0
12:15 pm 12:15 Sunny 68 20 48 9 49 49 N 10 17 30 1016 10 16.09344 0 0
12:35 pm 12:35 Sunny 70 21 48 9 46 46 NW 6 9 29.97 1015 10 16.09344 0 0
12:55 pm 12:55 Sunny 72 22 48 9 44 44 NNE 8 13 29.97 1015 10 16.09344 0 0
1:15 pm 13:15 Sunny 72 22 48 9 44 44 NNW 6 9 29.97 1015 10 16.09344 0 0
1:35 pm 13:35 Sunny 72 22 48 9 44 44 NNW 7 11 29.97 1015 10 16.09344 0 0
1:55 pm 13:55 Sunny 73 23 48 9 41 41 NNW 5 7 29.97 1015 10 16.09344 0 0
2:15 pm 14:15 Sunny 73 23 48 9 41 41 N 6 9 29.97 1015 10 16.09344 0 0
2:35 pm 14:35 Sunny 75 24 48 9 39 39 NNW 8 13 29.91 1013 10 16.09344 0 0
2:55 pm 14:55 Sunny 73 23 48 9 41 41 NW 6 9 29.94 1014 10 16.09344 0 0
3:15 pm 15:15 Sunny 75 24 48 9 39 39 WNW 3 6 29.91 1013 10 16.09344 0 0
3:35 pm 15:35 Sunny 75 24 48 9 39 39 NW 6 9 29.91 1013 10 16.09344 0 0
3:55 pm 15:55 Sunny 75 24 48 9 39 39 NE 5 7 29.88 1012 10 16.09344 0 0
4:15 pm 16:15 Partly Cloudy 75 24 46 8 36 36 NW 7 11 29.88 1012 10 16.09344 0 0
4:35 pm 16:35 Partly Cloudy 77 25 46 8 34 34 SSW 5 7 29.88 1012 10 16.09344 0 0
4:55 pm 16:55 Sunny 77 25 46 8 34 34 Calm 29.88 1012 10 16.09344 0 0
5:15 pm 17:15 Sunny 77 25 46 8 34 34 Calm 29.85 1011 10 16.09344 0 0
5:35 pm 17:35 Partly Cloudy 75 24 45 7 34 34 Calm 29.85 1011 10 16.09344 0 0
5:55 pm 17:55 Mostly Cloudy 75 24 46 8 36 36 N 6 9 29.85 1011 10 16.09344 0 0
6:15 pm 18:15 Cloudy 75 24 45 7 34 34 Calm 29.85 1011 10 16.09344 0 0
6:35 pm 18:35 Mostly Cloudy 75 24 45 7 34 34 Calm 29.85 1011 10 16.09344 0 0
6:55 pm 18:55 Sunny 75 24 39 4 27 27 SSE 15 24 29.83 1010 10 16.09344 0 0
7:15 pm 19:15 Mostly Cloudy 73 23 48 9 41 41 NNE 3 6 29.85 1011 10 16.09344 0 0
7:35 pm 19:35 Mostly Cloudy 73 23 50 10 44 44 NNE 5 7 29.85 1011 10 16.09344 0 0
7:55 pm 19:55 Mostly Cloudy 72 22 48 9 44 44 NNE 5 7 29.88 1012 10 16.09344 0 0
8:15 pm 20:15 Mostly Cloudy 70 21 48 9 46 46 ENE 5 7 29.88 1012 10 16.09344 0 0
8:35 pm 20:35 Partly Cloudy 70 21 48 9 46 46 E 5 7 29.88 1012 10 16.09344 0 0
8:55 pm 20:55 Partly Cloudy 66 19 48 9 52 52 ENE 7 11 29.91 1013 10 16.09344 0 0
9:15 pm 21:15 Mostly Cloudy 68 20 48 9 49 49 E 7 11 29.88 1012 10 16.09344 0 0
9:35 pm 21:35 Cloudy 68 20 48 9 49 49 E 8 13 29.91 1013 10 16.09344 0 0
9:55 pm 21:55 Partly Cloudy 64 18 48 9 56 56 E 7 11 29.94 1014 10 16.09344 0 0
10:15 pm 22:15 Partly Cloudy 63 17 50 10 64 64 ESE 6 9 29.94 1014 10 16.09344 0 0
10:35 pm 22:35 Mostly Cloudy 63 17 50 10 64 64 ESE 6 9 29.94 1014 10 16.09344 0 0
10:55 pm 22:55 Mostly Cloudy 63 17 52 11 68 68 E 8 13 29.94 1014 10 16.09344 0 0
11:15 pm 23:15 Mostly Cloudy 64 18 52 11 64 64 ESE 8 13 29.94 1014 10 16.09344 0 0
11:35 pm 23:35 Partly Cloudy 63 17 52 11 68 68 SE 9 15 29.94 1014 10 16.09344 0 0
11:55 pm 23:55 Partly Cloudy 63 17 52 11 68 68 ESE 8 13 29.94 1014 10 16.09344 0 0

Powered by AerisWeather